Time,TemperatureF,DewpointF,PressureIn,WindDirection,WindDirectionDegrees,WindSpeedMPH,WindSpeedGustMPH,Humidity,HourlyPrecipIn,Conditions,Clouds,dailyrainin,SoftwareType,DateUTC
2013-01-19 00:03:00,23.0,21.0,29.70,WSW,245,7.0,11.0,92,-99.99,,,-99.99,,2013-01-19 05:03:00,
2013-01-19 00:23:00,23.0,21.0,29.70,WSW,245,8.0,11.0,92,-99.99,,,-99.99,,2013-01-19 05:23:00,
2013-01-19 00:33:00,23.0,21.0,29.70,WSW,250,7.0,10.0,92,-99.99,,,-99.99,,2013-01-19 05:33:00,
2013-01-19 00:42:00,23.0,21.0,29.70,WSW,250,7.0,10.0,92,-99.99,,,-99.99,,2013-01-19 05:42:00,
2013-01-19 00:52:00,23.0,21.0,29.70,WSW,250,7.0,10.0,92,-99.99,,,-99.99,,2013-01-19 05:52:00,
2013-01-19 01:02:00,23.0,21.0,29.71,WSW,250,7.0,10.0,92,-99.99,,,-99.99,,2013-01-19 06:02:00,
2013-01-19 01:12:00,23.0,21.0,29.71,WSW,250,7.0,10.0,92,-99.99,,,-99.99,,2013-01-19 06:12:00,
2013-01-19 01:22:00,23.0,21.0,29.70,WSW,245,7.0,9.0,92,-99.99,,,-99.99,,2013-01-19 06:22:00,
2013-01-19 01:32:00,23.0,21.0,29.69,SW,215,7.0,9.0,92,-99.99,,,-99.99,,2013-01-19 06:32:00,
2013-01-19 01:43:00,23.0,21.0,29.69,SW,215,7.0,9.0,92,-99.99,,,-99.99,,2013-01-19 06:43:00,
2013-01-19 01:52:00,23.0,21.0,29.68,SW,230,7.0,10.0,92,-99.99,,,-99.99,,2013-01-19 06:52:00,
2013-01-19 02:02:00,23.0,21.0,29.69,SW,230,7.0,9.0,92,-99.99,,,-99.99,,2013-01-19 07:02:00,
2013-01-19 02:12:00,23.0,21.0,29.69,SW,230,7.0,9.0,92,-99.99,,,-99.99,,2013-01-19 07:12:00,
2013-01-19 02:22:00,23.0,21.0,29.70,WSW,245,7.0,11.0,92,-99.99,,,-99.99,,2013-01-19 07:22:00,
2013-01-19 02:33:00,23.0,21.0,29.69,WSW,245,7.0,9.0,91,-99.99,,,-99.99,,2013-01-19 07:33:00,
2013-01-19 02:43:00,23.0,21.0,29.69,WSW,245,7.0,9.0,91,-99.99,,,-99.99,,2013-01-19 07:43:00,
2013-01-19 02:52:00,24.0,21.0,29.69,West,260,8.0,10.0,91,-99.99,,,-99.99,,2013-01-19 07:52:00,
2013-01-19 03:02:00,24.0,21.0,29.69,SW,215,6.0,11.0,91,-99.99,,,-99.99,,2013-01-19 08:02:00,
2013-01-19 03:12:00,24.0,21.0,29.69,SW,215,6.0,11.0,91,-99.99,,,-99.99,,2013-01-19 08:12:00,
2013-01-19 03:22:00,24.0,22.0,29.69,WSW,250,6.0,11.0,91,-99.99,,,-99.99,,2013-01-19 08:22:00,
2013-01-19 03:32:00,24.0,22.0,29.69,WSW,245,8.0,11.0,91,-99.99,,,-99.99,,2013-01-19 08:32:00,
2013-01-19 03:43:00,24.0,22.0,29.69,WSW,245,8.0,11.0,91,-99.99,,,-99.99,,2013-01-19 08:43:00,
2013-01-19 03:52:00,24.0,22.0,29.70,West,265,9.0,12.0,91,-99.99,,,-99.99,,2013-01-19 08:52:00,
2013-01-19 04:02:00,24.0,22.0,29.70,SW,235,8.0,11.0,91,-99.99,,,-99.99,,2013-01-19 09:02:00,
2013-01-19 04:12:00,24.0,22.0,29.70,SW,235,8.0,11.0,91,-99.99,,,-99.99,,2013-01-19 09:12:00,
2013-01-19 04:23:00,25.0,22.0,29.71,West,260,9.0,13.0,90,-99.99,,,-99.99,,2013-01-19 09:23:00,
2013-01-19 04:33:00,25.0,22.0,29.71,WSW,255,10.0,13.0,90,-99.99,,,-99.99,,2013-01-19 09:33:00,
2013-01-19 04:42:00,25.0,22.0,29.71,WSW,255,10.0,13.0,90,-99.99,,,-99.99,,2013-01-19 09:42:00,
2013-01-19 04:52:00,25.0,22.0,29.71,WSW,250,9.0,12.0,90,-99.99,,,-99.99,,2013-01-19 09:52:00,
2013-01-19 05:02:00,25.0,22.0,29.71,WSW,250,8.0,14.0,90,-99.99,,,-99.99,,2013-01-19 10:02:00,
2013-01-19 05:12:00,25.0,22.0,29.71,WSW,250,8.0,14.0,90,-99.99,,,-99.99,,2013-01-19 10:12:00,
2013-01-19 05:22:00,25.0,22.0,29.72,WSW,250,9.0,13.0,90,-99.99,,,-99.99,,2013-01-19 10:22:00,
2013-01-19 05:32:00,25.0,22.0,29.71,SW,235,7.0,13.0,90,-99.99,,,-99.99,,2013-01-19 10:32:00,
2013-01-19 05:42:00,25.0,22.0,29.71,SW,235,7.0,13.0,90,-99.99,,,-99.99,,2013-01-19 10:42:00,
2013-01-19 05:52:00,25.0,23.0,29.70,SW,225,6.0,10.0,90,-99.99,,,-99.99,,2013-01-19 10:52:00,
2013-01-19 06:03:00,25.0,23.0,29.70,South,190,7.0,8.0,90,-99.99,,,-99.99,,2013-01-19 11:03:00,
2013-01-19 06:12:00,25.0,23.0,29.70,South,190,7.0,8.0,90,-99.99,,,-99.99,,2013-01-19 11:12:00,
2013-01-19 07:48:00,24.0,22.0,29.71,SSW,195,7.0,13.0,90,-99.99,,,-99.99,,2013-01-19 12:48:00,
2013-01-19 07:53:00,24.0,22.0,29.71,SSW,195,9.0,11.0,90,-99.99,,,-99.99,,2013-01-19 12:53:00,
2013-01-19 08:03:00,24.0,21.0,29.70,SW,215,6.0,11.0,90,-99.99,,,-99.99,,2013-01-19 13:03:00,
2013-01-19 08:12:00,24.0,21.0,29.70,SW,215,6.0,11.0,90,-99.99,,,-99.99,,2013-01-19 13:12:00,
2013-01-19 08:22:00,24.0,21.0,29.71,SW,225,8.0,14.0,90,-99.99,,,-99.99,,2013-01-19 13:22:00,
2013-01-19 08:33:00,23.0,21.0,29.71,SSW,200,7.0,14.0,90,-99.99,,,-99.99,,2013-01-19 13:33:00,
2013-01-19 08:42:00,23.0,21.0,29.71,SSW,200,7.0,14.0,90,-99.99,,,-99.99,,2013-01-19 13:42:00,
2013-01-19 08:53:00,23.0,21.0,29.69,SSW,200,7.0,11.0,89,-99.99,,,-99.99,,2013-01-19 13:53:00,
2013-01-19 09:03:00,23.0,21.0,29.69,South,185,9.0,13.0,89,-99.99,,,-99.99,,2013-01-19 14:03:00,
2013-01-19 09:12:00,23.0,21.0,29.69,South,185,9.0,13.0,89,-99.99,,,-99.99,,2013-01-19 14:12:00,
2013-01-19 09:23:00,23.0,21.0,29.67,SSW,195,7.0,13.0,89,-99.99,,,-99.99,,2013-01-19 14:23:00,
2013-01-19 09:34:00,23.0,21.0,29.67,South,185,10.0,14.0,89,-99.99,,,-99.99,,2013-01-19 14:34:00,
2013-01-19 09:43:00,23.0,21.0,29.67,South,185,10.0,14.0,89,-99.99,,,-99.99,,2013-01-19 14:43:00,
2013-01-19 09:53:00,23.0,21.0,29.67,South,190,10.0,15.0,89,-99.99,,,-99.99,,2013-01-19 14:53:00,
2013-01-19 10:03:00,23.0,21.0,29.67,South,190,9.0,15.0,89,-99.99,,,-99.99,,2013-01-19 15:03:00,
2013-01-19 10:12:00,23.0,21.0,29.67,South,190,9.0,15.0,89,-99.99,,,-99.99,,2013-01-19 15:12:00,
2013-01-19 10:23:00,24.0,22.0,29.66,SSW,195,9.0,14.0,90,-99.99,,,-99.99,,2013-01-19 15:23:00,
2013-01-19 10:33:00,25.0,22.0,29.65,SSW,200,9.0,17.0,90,-99.99,,,-99.99,,2013-01-19 15:33:00,
2013-01-19 10:43:00,25.0,22.0,29.65,SSW,200,9.0,17.0,90,-99.99,,,-99.99,,2013-01-19 15:43:00,
2013-01-19 10:53:00,25.0,23.0,29.64,South,190,10.0,14.0,90,-99.99,,,-99.99,,2013-01-19 15:53:00,
2013-01-19 11:03:00,25.0,23.0,29.64,South,190,10.0,14.0,90,-99.99,,,-99.99,,2013-01-19 16:03:00,
2013-01-19 11:23:00,27.0,24.0,29.64,SW,225,9.0,16.0,88,-99.99,,,-99.99,,2013-01-19 16:23:00,
2013-01-19 11:33:00,27.0,24.0,29.63,SSW,200,6.0,12.0,87,-99.99,,,-99.99,,2013-01-19 16:33:00,
2013-01-19 11:43:00,27.0,24.0,29.63,SSW,200,6.0,12.0,87,-99.99,,,-99.99,,2013-01-19 16:43:00,
2013-01-19 11:53:00,28.0,24.0,29.61,South,180,8.0,13.0,86,-99.99,,,-99.99,,2013-01-19 16:53:00,
2013-01-19 12:03:00,28.0,25.0,29.63,West,280,8.0,11.0,87,-99.99,,,-99.99,,2013-01-19 17:03:00,
2013-01-19 12:19:00,28.0,25.0,29.63,West,280,8.0,11.0,87,-99.99,,,-99.99,,2013-01-19 17:19:00,
2013-01-19 12:28:00,28.0,25.0,29.63,SSW,200,9.0,14.0,87,-99.99,,,-99.99,,2013-01-19 17:28:00,
2013-01-19 12:35:00,28.0,25.0,29.61,SSW,195,8.0,14.0,86,-99.99,,,-99.99,,2013-01-19 17:35:00,
2013-01-19 12:48:00,28.0,25.0,29.61,SSW,195,8.0,14.0,86,-99.99,,,-99.99,,2013-01-19 17:48:00,
2013-01-19 12:53:00,28.0,25.0,29.59,South,185,11.0,15.0,86,-99.99,,,-99.99,,2013-01-19 17:53:00,
2013-01-19 13:11:00,29.0,25.0,29.58,South,170,11.0,16.0,86,-99.99,,,-99.99,,2013-01-19 18:11:00,
2013-01-19 13:20:00,30.0,26.0,29.51,South,180,10.0,18.0,87,-99.99,,,-99.99,,2013-01-19 18:20:00,
2013-01-19 13:35:00,29.0,26.0,29.54,South,190,11.0,18.0,86,-99.99,,,-99.99,,2013-01-19 18:35:00,
2013-01-19 13:45:00,29.0,26.0,29.54,South,190,11.0,18.0,86,-99.99,,,-99.99,,2013-01-19 18:45:00,
2013-01-19 14:09:00,30.0,26.0,29.51,South,180,10.0,18.0,87,-99.99,,,-99.99,,2013-01-19 19:09:00,
2013-01-19 14:29:00,31.0,27.0,29.49,South,185,12.0,24.0,85,-99.99,,,-99.99,,2013-01-19 19:29:00,
2013-01-19 14:46:00,33.0,29.0,29.47,SW,235,10.0,21.0,83,-99.99,,,-99.99,,2013-01-19 19:46:00,
2013-01-19 14:54:00,33.0,29.0,29.49,SW,235,11.0,19.0,83,-99.99,,,-99.99,,2013-01-19 19:54:00,
2013-01-19 15:10:00,33.0,29.0,29.48,SW,220,8.0,21.0,83,-99.99,,,-99.99,,2013-01-19 20:10:00,
2013-01-19 15:19:00,33.0,29.0,29.48,SW,220,8.0,21.0,83,-99.99,,,-99.99,,2013-01-19 20:19:00,
2013-01-19 15:25:00,34.0,29.0,29.47,South,185,7.0,11.0,83,-99.99,,,-99.99,,2013-01-19 20:25:00,
2013-01-19 15:38:00,34.0,29.0,29.46,SSE,160,7.0,11.0,83,-99.99,,,-99.99,,2013-01-19 20:38:00,
2013-01-19 15:48:00,34.0,29.0,29.46,SSE,160,7.0,11.0,83,-99.99,,,-99.99,,2013-01-19 20:48:00,
2013-01-19 15:50:00,34.0,31.0,29.38,SW,215,13.0,22.0,86,-99.99,,,-99.99,,2013-01-19 20:50:00,
2013-01-19 15:54:00,34.0,29.0,29.45,South,175,8.0,11.0,84,-99.99,,,-99.99,,2013-01-19 20:54:00,
2013-01-19 16:06:00,34.0,30.0,29.43,South,190,10.0,18.0,85,-99.99,,,-99.99,,2013-01-19 21:06:00,
2013-01-19 16:14:00,34.0,30.0,29.43,South,190,10.0,18.0,85,-99.99,,,-99.99,,2013-01-19 21:14:00,
2013-01-19 16:26:00,34.0,30.0,29.41,South,170,9.0,15.0,85,-99.99,,,-99.99,,2013-01-19 21:26:00,
2013-01-19 16:44:00,34.0,31.0,29.38,SW,215,13.0,22.0,86,-99.99,,,-99.99,,2013-01-19 21:44:00,
2013-01-19 16:56:00,35.0,31.0,29.39,SSE,165,8.0,15.0,87,-99.99,,,-99.99,,2013-01-19 21:56:00,
2013-01-19 17:18:00,35.0,31.0,29.39,South,190,7.0,12.0,86,-99.99,,,-99.99,,2013-01-19 22:18:00,
2013-01-19 17:26:00,35.0,31.0,29.39,South,180,7.0,11.0,87,-99.99,,,-99.99,,2013-01-19 22:26:00,
2013-01-19 17:35:00,35.0,32.0,29.39,South,180,7.0,13.0,87,-99.99,,,-99.99,,2013-01-19 22:35:00,
2013-01-19 17:47:00,35.0,32.0,29.39,South,180,7.0,13.0,87,-99.99,,,-99.99,,2013-01-19 22:47:00,
2013-01-19 17:54:00,35.0,32.0,29.39,WSW,255,9.0,11.0,88,-99.99,,,-99.99,,2013-01-19 22:54:00,
2013-01-19 18:13:00,35.0,32.0,29.38,West,265,8.0,10.0,89,-99.99,,,-99.99,,2013-01-19 23:13:00,
2013-01-19 18:25:00,35.0,32.0,29.38,WSW,250,10.0,13.0,90,-99.99,,,-99.99,,2013-01-19 23:25:00,
2013-01-19 18:34:00,35.0,33.0,29.38,WSW,240,8.0,11.0,91,-99.99,,,-99.99,,2013-01-19 23:34:00,
2013-01-19 18:45:00,35.0,33.0,29.38,WSW,240,8.0,11.0,91,-99.99,,,-99.99,,2013-01-19 23:45:00,
2013-01-19 18:59:00,35.0,33.0,29.38,WSW,250,11.0,12.0,92,-99.99,,,-99.99,,2013-01-19 23:59:00,
2013-01-19 19:08:00,35.0,34.0,29.39,WNW,285,11.0,13.0,93,-99.99,,,-99.99,,2013-01-20 00:08:00,
2013-01-19 19:15:00,35.0,34.0,29.39,WNW,285,11.0,13.0,93,-99.99,,,-99.99,,2013-01-20 00:15:00,
2013-01-19 19:20:00,37.0,33.0,29.40,West,280,9.0,21.0,86,-99.99,,,-99.99,,2013-01-20 00:20:00,
2013-01-19 19:25:00,36.0,34.0,29.39,West,275,13.0,16.0,94,-99.99,,,-99.99,,2013-01-20 00:25:00,
2013-01-19 19:46:00,36.0,35.0,29.39,West,270,11.0,21.0,94,-99.99,,,-99.99,,2013-01-20 00:46:00,
2013-01-19 19:53:00,37.0,34.0,29.40,WNW,290,11.0,22.0,90,-99.99,,,-99.99,,2013-01-20 00:53:00,
2013-01-19 20:04:00,37.0,33.0,29.40,West,280,9.0,21.0,86,-99.99,,,-99.99,,2013-01-20 01:04:00,
2013-01-19 20:26:00,37.0,32.0,29.40,NNW,330,11.0,28.0,84,-99.99,,,-99.99,,2013-01-20 01:26:00,
2013-01-19 20:37:00,36.0,31.0,29.41,NW,310,11.0,21.0,84,-99.99,,,-99.99,,2013-01-20 01:37:00,
2013-01-19 20:47:00,36.0,31.0,29.41,NW,310,11.0,21.0,84,-99.99,,,-99.99,,2013-01-20 01:47:00,
2013-01-19 20:58:00,34.0,27.0,29.42,NW,325,27.0,44.0,76,-99.99,,,-99.99,,2013-01-20 01:58:00,
2013-01-19 21:07:00,34.0,27.0,29.42,NW,325,27.0,44.0,76,-99.99,,,-99.99,,2013-01-20 02:07:00,
2013-01-19 21:15:00,34.0,27.0,29.42,NW,325,27.0,44.0,76,-99.99,,,-99.99,,2013-01-20 02:15:00,
2013-01-19 21:26:00,33.0,26.0,29.43,NW,325,31.0,45.0,77,-99.99,,,-99.99,,2013-01-20 02:26:00,
2013-01-19 21:35:00,31.0,25.0,29.45,NW,325,24.0,42.0,76,-99.99,,,-99.99,,2013-01-20 02:35:00,
2013-01-19 21:44:00,31.0,25.0,29.45,NW,325,24.0,42.0,76,-99.99,,,-99.99,,2013-01-20 02:44:00,
2013-01-19 21:55:00,30.0,23.0,29.45,NW,325,31.0,44.0,74,-99.99,,,-99.99,,2013-01-20 02:55:00,
2013-01-19 22:08:00,29.0,23.0,29.47,NNW,330,29.0,57.0,78,-99.99,,,-99.99,,2013-01-20 03:08:00,
2013-01-19 22:14:00,29.0,23.0,29.47,NNW,330,29.0,57.0,78,-99.99,,,-99.99,,2013-01-20 03:14:00,
2013-01-19 22:25:00,28.0,23.0,29.49,NNW,330,37.0,49.0,80,-99.99,,,-99.99,,2013-01-20 03:25:00,
2013-01-19 22:38:00,27.0,23.0,29.49,NW,325,22.0,46.0,82,-99.99,,,-99.99,,2013-01-20 03:38:00,
2013-01-19 22:45:00,27.0,23.0,29.49,NW,325,22.0,46.0,82,-99.99,,,-99.99,,2013-01-20 03:45:00,
2013-01-19 22:54:00,27.0,23.0,29.51,NW,325,37.0,49.0,85,-99.99,,,-99.99,,2013-01-20 03:54:00,
2013-01-19 23:05:00,27.0,22.0,29.51,NNW,330,41.0,54.0,83,-99.99,,,-99.99,,2013-01-20 04:05:00,
2013-01-19 23:15:00,27.0,22.0,29.51,NNW,330,41.0,54.0,83,-99.99,,,-99.99,,2013-01-20 04:15:00,
2013-01-19 23:25:00,26.0,21.0,29.53,NNW,335,42.0,56.0,82,-99.99,,,-99.99,,2013-01-20 04:25:00,
2013-01-19 23:35:00,25.0,20.0,29.55,NNW,330,44.0,57.0,81,-99.99,,,-99.99,,2013-01-20 04:35:00,
2013-01-19 23:44:00,25.0,20.0,29.55,NNW,330,44.0,57.0,81,-99.99,,,-99.99,,2013-01-20 04:44:00,
2013-01-19 23:54:00,24.0,20.0,29.56,NNW,330,39.0,53.0,82,-99.99,,,-99.99,,2013-01-20 04:54:00,